Weather History for Tacoma, WA

Change the Weather History Date:

Tuesday, March 4, 2014

  Actual Average Record
Temperature  
Mean Temperature 50 °F -  
Max Temperature 54 °F 48 °F 66 °F (1987)
Min Temperature 46 °F 32 °F 14 °F (1955)
Degree Days  
Heating Degree Days 15    
Moisture  
Dew Point 49 °F    
Average Humidity 98    
Maximum Humidity 100    
Minimum Humidity 85    
Precipitation  
Precipitation 0.54 in - - ()
Sea Level Pressure  
Sea Level Pressure 29.94 in    
Wind  
Wind Speed 8 mph (SSW)    
Max Wind Speed 16 mph    
Max Gust Speed 26 mph    
Visibility 9 miles    
Events Rain    
Averages and records for this station are not official NWS values.
T = Trace of Precipitation, MM = Missing Value Source: NWS Daily Summary

Daily Weather History Graph

Daily Weather History Graph

Search for Another Location

Airport:

Trip Planner

Search our weather history database for the weather conditions in past years. The results will help you decide how hot, cold, wet, or windy it might be!

Date:

Astronomy

Mar. 04, 2014 Rise Set
Actual Time 6:44 AM PST 5:59 PM PST
Civil Twilight 6:13 AM PST 6:30 PM PST
Nautical Twilight 5:38 AM PST 7:05 PM PST
Astronomical Twilight 5:02 AM PST 7:41 PM PST
Moon 8:17 AM PST (3/4) 10:31 PM PST (3/4)
Length of Visible Light 12h 16m
Length of Day
11h 15m
Waxing Crescent, 15% of the Moon is Illuminated
Mar 4
Waxing Crescent
Mar 8
First Quarter
Mar 16
Full
Mar 23
Last Quarter
Mar 30
New

Hourly Weather History & Observations

Time (PST) Temp. Windchill Dew Point Humidity Pressure Visibility Wind Dir Wind Speed Gust Speed Precip Events Conditions
12:05 AM 48.2 °F - 48.2 °F 100% 29.92 in 8.0 mi SSW 15.0 mph - N/A   Overcast
12:13 AM 48.2 °F - 48.2 °F 100% 29.92 in 6.0 mi SSW 8.1 mph - N/A Rain Light Rain
12:31 AM 48.2 °F - 46.4 °F 93% 29.93 in 10.0 mi South 10.4 mph - N/A   Overcast
12:58 AM 47.5 °F - 47.3 °F 99% 29.96 in 10.0 mi SSW 10.4 mph - 0.02 in   Mostly Cloudy
1:58 AM 47.3 °F - 47.1 °F 99% 29.96 in 10.0 mi South 6.9 mph - N/A   Overcast
2:22 AM 46.4 °F 42.9 °F 46.4 °F 100% 29.94 in 10.0 mi South 6.9 mph - N/A Rain Light Rain
2:53 AM 46.4 °F 43.5 °F 46.4 °F 100% 29.94 in 4.0 mi South 5.8 mph - N/A Rain Light Rain
2:58 AM 46.9 °F - 46.8 °F 99% 29.96 in 4.0 mi South 3.5 mph - 0.06 in Rain Light Rain
3:08 AM 46.4 °F 44.3 °F 46.4 °F 100% 29.94 in 7.0 mi South 4.6 mph - N/A Rain Light Rain
3:13 AM 46.4 °F 44.3 °F 46.4 °F 100% 29.94 in 7.0 mi South 4.6 mph - N/A Rain Light Rain
3:23 AM 46.4 °F 42.9 °F 46.4 °F 100% 29.93 in 10.0 mi South 6.9 mph - N/A Rain Light Rain
3:29 AM 46.4 °F 42.4 °F 46.4 °F 100% 29.93 in 10.0 mi South 8.1 mph - N/A   Overcast
3:33 AM 46.4 °F 42.4 °F 46.4 °F 100% 29.93 in 10.0 mi South 8.1 mph - N/A Rain Light Rain
3:43 AM 46.4 °F 42.4 °F 46.4 °F 100% 29.93 in 10.0 mi South 8.1 mph - N/A   Overcast
3:48 AM 46.4 °F 42.4 °F 46.4 °F 100% 29.93 in 10.0 mi South 8.1 mph - N/A   Overcast
3:51 AM 46.4 °F 42.4 °F 46.4 °F 100% 29.93 in 10.0 mi South 8.1 mph - N/A Rain Light Rain
3:58 AM 46.9 °F - 46.9 °F 100% 29.95 in 9.0 mi South 11.5 mph - 0.03 in Rain Light Rain
4:13 AM 48.2 °F - 46.4 °F 93% 29.93 in 9.0 mi SSW 8.1 mph - N/A   Light Drizzle
4:15 AM 48.2 °F - 46.4 °F 93% 29.94 in 8.0 mi SW 8.1 mph - N/A   Light Drizzle
4:20 AM 48.2 °F - 46.4 °F 93% 29.94 in 5.0 mi SSW 9.2 mph - N/A Rain Light Rain
4:24 AM 48.2 °F - 46.4 °F 93% 29.94 in 4.0 mi SSW 8.1 mph - N/A   Overcast
4:44 AM 48.2 °F - 48.2 °F 100% 29.94 in 3.0 mi SSW 9.2 mph - N/A   Overcast
4:49 AM 48.2 °F - 48.2 °F 100% 29.94 in 3.0 mi SSW 8.1 mph - N/A   Overcast
4:52 AM 48.2 °F - 48.2 °F 100% 29.94 in 3.0 mi SW 8.1 mph - N/A   Light Drizzle
4:57 AM 48.2 °F - 48.2 °F 100% 29.94 in 5.0 mi SSW 9.2 mph - N/A   Light Drizzle
4:58 AM 47.3 °F - 47.3 °F 100% 29.96 in 5.0 mi SW 10.4 mph - 0.04 in   Light Drizzle
5:02 AM 48.2 °F - 48.2 °F 100% 29.94 in 6.0 mi SSW 9.2 mph - N/A   Overcast
5:06 AM 48.2 °F - 48.2 °F 100% 29.94 in 6.0 mi SSW 10.4 mph - N/A   Light Drizzle
5:27 AM 48.2 °F - 46.4 °F 93% 29.93 in 10.0 mi South 8.1 mph - N/A   Overcast
5:42 AM 46.4 °F 41.9 °F 46.4 °F 100% 29.94 in 10.0 mi South 9.2 mph - N/A   Overcast
5:46 AM 46.4 °F 41.1 °F 46.4 °F 100% 29.94 in 10.0 mi SSW 11.5 mph - N/A Rain Light Rain
5:58 AM 47.5 °F - 47.3 °F 99% 29.96 in 9.0 mi SSW 6.9 mph - 0.02 in Rain Light Rain
6:03 AM 48.2 °F - 46.4 °F 93% 29.94 in 9.0 mi SSW 8.1 mph - N/A Rain Light Rain
6:58 AM 47.1 °F - 46.9 °F 99% 29.96 in 9.0 mi West 2.3 mph - 0.08 in Rain Light Rain
7:06 AM 46.4 °F 44.3 °F 46.4 °F 100% 29.95 in 10.0 mi WNW 4.6 mph - N/A Rain Light Rain
7:16 AM 46.4 °F - 46.4 °F 100% 29.95 in 10.0 mi West 2.3 mph - N/A Rain Light Rain
7:21 AM 46.4 °F - 46.4 °F 100% 29.95 in 9.0 mi SW 2.3 mph - N/A Rain Light Rain
7:51 AM 46.4 °F 44.3 °F 46.4 °F 100% 29.96 in 9.0 mi South 4.6 mph - N/A Rain Light Rain
7:58 AM 47.1 °F - 47.1 °F 100% 29.98 in 8.0 mi SSW 4.6 mph - 0.03 in Rain Light Rain
8:58 AM 47.5 °F - 47.5 °F 100% 29.98 in 9.0 mi South 4.6 mph - 0.09 in Rain Light Rain
9:13 AM 48.2 °F - 48.2 °F 100% 29.96 in 10.0 mi South 6.9 mph - N/A Rain Light Rain
9:18 AM 48.2 °F - 48.2 °F 100% 29.96 in 10.0 mi South 6.9 mph - N/A   Light Drizzle
9:19 AM 48.2 °F - 48.2 °F 100% 29.96 in 10.0 mi South 6.9 mph - N/A   Overcast
9:27 AM 48.2 °F - 48.2 °F 100% 29.96 in 10.0 mi South 6.9 mph - N/A Rain Light Rain
9:58 AM 48.6 °F - 48.2 °F 99% 29.97 in 10.0 mi South 8.1 mph - 0.02 in Rain Light Rain
10:10 AM 48.2 °F - 48.2 °F 100% 29.96 in 10.0 mi South 8.1 mph - N/A   Overcast
10:26 AM 50.0 °F - 50.0 °F 100% 29.96 in 10.0 mi South 9.2 mph - N/A Rain Light Rain
10:56 AM 50.0 °F - 50.0 °F 100% 29.95 in 10.0 mi South 11.5 mph - N/A   Overcast
10:58 AM 50.0 °F - 50.0 °F 100% 29.97 in 10.0 mi South 10.4 mph - 0.01 in   Overcast
11:03 AM 50.0 °F - 50.0 °F 100% 29.95 in 10.0 mi SSW 11.5 mph - N/A   Overcast
11:18 AM 51.8 °F - 51.8 °F 100% 29.94 in 10.0 mi South 15.0 mph - N/A   Overcast
11:33 AM 53.6 °F - 51.8 °F 94% 29.94 in 10.0 mi South 15.0 mph - N/A   Overcast
11:38 AM 53.6 °F - 51.8 °F 94% 29.94 in 10.0 mi South 15.0 mph - N/A   Overcast
11:48 AM 53.6 °F - 51.8 °F 94% 29.94 in 10.0 mi South 11.5 mph - N/A   Overcast
11:58 AM 53.1 °F - 51.1 °F 93% 29.96 in 10.0 mi South 16.1 mph 21.9 mph N/A   Overcast
12:58 PM 53.6 °F - 49.3 °F 85% 29.95 in 10.0 mi SSW 11.5 mph 17.3 mph N/A   Overcast
1:45 PM 53.6 °F - 50.0 °F 88% 29.94 in 9.0 mi SSW 12.7 mph 26.5 mph N/A Rain Light Rain
1:55 PM 53.6 °F - 50.0 °F 88% 29.94 in 10.0 mi SSW 13.8 mph 20.7 mph N/A   Overcast
1:58 PM 53.1 °F - 50.7 °F 92% 29.96 in 10.0 mi SSW 15.0 mph 20.7 mph 0.00 in   Overcast
2:18 PM 53.6 °F - 50.0 °F 88% 29.94 in 10.0 mi South 11.5 mph 23.0 mph N/A   Overcast
2:58 PM 54.1 °F - 49.8 °F 85% 29.96 in 10.0 mi SSW 13.8 mph 20.7 mph N/A   Overcast
3:13 PM 53.6 °F - 50.0 °F 88% 29.95 in 10.0 mi SSW 6.9 mph - N/A   Overcast
3:58 PM 52.3 °F - 52.0 °F 99% 29.96 in 10.0 mi South 8.1 mph - N/A   Overcast
4:58 PM 52.9 °F - 50.7 °F 92% 29.94 in 10.0 mi SSW 6.9 mph - N/A   Overcast
5:50 PM 51.8 °F - 51.8 °F 100% 29.92 in 10.0 mi SSW 5.8 mph - N/A Rain Light Rain
5:58 PM 52.0 °F - 51.8 °F 99% 29.94 in 7.0 mi South 6.9 mph - 0.01 in Rain Light Rain
6:35 PM 51.8 °F - 50.0 °F 94% 29.92 in 9.0 mi South 2.3 mph - N/A   Overcast
6:58 PM 50.7 °F - 50.7 °F 100% 29.94 in 10.0 mi South 2.3 mph - 0.03 in   Overcast
7:20 PM 50.0 °F - 50.0 °F 100% 29.92 in 10.0 mi SSE 1.2 mph - N/A Rain Light Rain
7:55 PM 50.0 °F - 50.0 °F 100% 29.91 in 10.0 mi Calm Calm - N/A   Overcast
7:58 PM 50.2 °F - 50.2 °F 100% 29.93 in 10.0 mi Calm Calm - 0.03 in   Overcast
8:14 PM 50.0 °F - 50.0 °F 100% 29.90 in 10.0 mi Calm Calm - N/A Rain Light Rain
8:18 PM 50.0 °F - 50.0 °F 100% 29.90 in 5.0 mi Calm Calm - N/A Rain Light Rain
8:49 PM 50.0 °F - 50.0 °F 100% 29.90 in 10.0 mi Calm Calm - N/A   Overcast
8:58 PM 49.8 °F - 49.8 °F 100% 29.91 in 10.0 mi Calm Calm - 0.03 in   Mostly Cloudy
9:03 PM 50.0 °F - 50.0 °F 100% 29.89 in 10.0 mi Calm Calm - N/A   Overcast
9:58 PM 49.5 °F - 49.5 °F 100% 29.90 in 10.0 mi Calm Calm - N/A   Overcast
10:52 PM 50.0 °F - 50.0 °F 100% 29.85 in 10.0 mi Calm Calm - N/A Rain Light Rain
10:58 PM 49.3 °F - 49.3 °F 100% 29.86 in 10.0 mi Calm Calm - 0.00 in Rain Light Rain
11:04 PM 50.0 °F - 50.0 °F 100% 29.84 in 10.0 mi Calm Calm - N/A   Overcast
11:11 PM 50.0 °F - 50.0 °F 100% 29.84 in 7.0 mi Calm Calm - N/A Rain Rain
11:58 PM 50.2 °F - 49.8 °F 99% 29.83 in 10.0 mi Calm Calm - 0.04 in Rain Light Rain